Weather History for KDUX - December, 2012

Change the Weather History Date:

Tuesday, December 18, 2012

  Actual Average (KBGD) Record (KBGD)
Temperature  
Mean Temperature 40 °F 38 °F  
Max Temperature 51 °F 49 °F 74 °F (1978)
Min Temperature 30 °F 26 °F 3 °F (1983)
Degree Days  
Heating Degree Days 24 27  
Month to date heating degree days 459  
Since 1 July heating degree days 1176  
Cooling Degree Days 0 0  
Month to date cooling degree days 0  
Year to date cooling degree days 1839  
Moisture  
Dew Point 22 °F    
Average Humidity 50    
Maximum Humidity 69    
Minimum Humidity 28    
Precipitation  
Precipitation 0.00 in 0.01 in 0.84 in (1995)
Month to date precipitation 0.33  
Year to date precipitation 21.28  
Snow  
Snow 0.00 in - - ()
Month to date snowfall  
Since 1 July snowfall  
Snow Depth -    
Sea Level Pressure  
Sea Level Pressure 29.77 in    
Wind  
Wind Speed 11 mph (South)    
Max Wind Speed 16 mph    
Max Gust Speed -    
Visibility 10 miles    
Events      
T = Trace of Precipitation, MM = Missing Value Source: NWS Daily Summary

Daily Weather History Graph

Daily Weather History Graph

Search for Another Location

Airport or City:

Trip Planner

Search our weather history database for the weather conditions in past years. The results will help you decide how hot, cold, wet, or windy it might be!

Date:

Astronomy

Dec. 18, 2012 Rise Set
Actual Time 7:53 AM CST 5:36 PM CST
Civil Twilight 7:24 AM CST 6:05 PM CST
Nautical Twilight 6:52 AM CST 6:37 PM CST
Astronomical Twilight 6:21 AM CST 7:08 PM CST
Moon 11:44 AM CST (12/18) 11:53 PM CST (12/18)
Length of Visible Light 10h 40m
Length of Day
9h 43m
Waxing Crescent, 35% of the Moon is Illuminated
Dec 18
Waxing Crescent
Dec 19
First Quarter
Dec 28
Full
Jan 4
Last Quarter
Jan 11
New

Hourly Weather History & Observations

Time (CST) Temp. Windchill Dew Point Humidity Pressure Visibility Wind Dir Wind Speed Gust Speed Precip Events Conditions
12:15 AM 35.6 °F 26.2 °F 23.0 °F 60% 29.76 in 10.0 mi WSW 15.0 mph - N/A   Clear
12:35 AM 33.8 °F 27.0 °F 23.0 °F 65% 29.76 in 10.0 mi WSW 8.1 mph - N/A   Clear
12:55 AM 32.0 °F 23.6 °F 23.0 °F 69% 29.74 in 10.0 mi WSW 10.4 mph - N/A   Clear
1:15 AM 33.8 °F 25.8 °F 23.0 °F 65% 29.74 in 10.0 mi West 10.4 mph - N/A   Clear
1:35 AM 32.0 °F 23.6 °F 23.0 °F 69% 29.73 in 10.0 mi West 10.4 mph - N/A   Clear
1:55 AM 32.0 °F 23.6 °F 21.2 °F 64% 29.74 in 10.0 mi WSW 10.4 mph - N/A   Clear
2:15 AM 30.2 °F 20.8 °F 21.2 °F 69% 29.73 in 10.0 mi WSW 11.5 mph - N/A   Clear
2:35 AM 30.2 °F 19.8 °F 21.2 °F 69% 29.75 in 10.0 mi WSW 13.8 mph - N/A   Clear
2:55 AM 32.0 °F 22.5 °F 21.2 °F 64% 29.75 in 10.0 mi WSW 12.7 mph - N/A   Clear
3:15 AM 30.2 °F 21.9 °F 21.2 °F 69% 29.75 in 10.0 mi WSW 9.2 mph - N/A   Clear
3:35 AM 32.0 °F 23.6 °F 21.2 °F 64% 29.74 in 10.0 mi WSW 10.4 mph - N/A   Clear
3:55 AM 32.0 °F 21.6 °F 23.0 °F 69% 29.74 in 10.0 mi WSW 15.0 mph - N/A   Clear
4:15 AM 32.0 °F 21.2 °F 21.2 °F 64% 29.73 in 10.0 mi WSW 16.1 mph - N/A   Clear
4:35 AM 32.0 °F 22.1 °F 21.2 °F 64% 29.74 in 10.0 mi WSW 13.8 mph - N/A   Clear
4:55 AM 32.0 °F 21.6 °F 21.2 °F 64% 29.74 in 10.0 mi WSW 15.0 mph - N/A   Clear
5:15 AM 33.8 °F 24.3 °F 21.2 °F 60% 29.75 in 10.0 mi West 13.8 mph - N/A   Clear
5:35 AM 33.8 °F 24.3 °F 21.2 °F 60% 29.75 in 10.0 mi West 13.8 mph - N/A   Clear
5:55 AM 33.8 °F 23.9 °F 21.2 °F 60% 29.75 in 10.0 mi West 15.0 mph - N/A   Clear
6:15 AM 33.8 °F 23.5 °F 19.4 °F 56% 29.76 in 10.0 mi West 16.1 mph - N/A   Clear
6:35 AM 33.8 °F 24.3 °F 19.4 °F 56% 29.77 in 10.0 mi WSW 13.8 mph - N/A   Clear
6:55 AM 32.0 °F 22.1 °F 21.2 °F 64% 29.78 in 10.0 mi WSW 13.8 mph - N/A   Clear
7:15 AM 33.8 °F 24.3 °F 21.2 °F 60% 29.79 in 10.0 mi WSW 13.8 mph - N/A   Clear
7:35 AM 32.0 °F 23.0 °F 19.4 °F 60% 29.79 in 10.0 mi WSW 11.5 mph - N/A   Clear
7:55 AM 30.2 °F 20.8 °F 19.4 °F 64% 29.79 in 10.0 mi WSW 11.5 mph - N/A   Clear
8:15 AM 30.2 °F 21.3 °F 19.4 °F 64% 29.81 in 10.0 mi WSW 10.4 mph - N/A   Clear
8:35 AM 32.0 °F 23.6 °F 21.2 °F 64% 29.82 in 10.0 mi WSW 10.4 mph - N/A   Clear
8:55 AM 35.6 °F 27.1 °F 23.0 °F 60% 29.82 in 10.0 mi West 12.7 mph - N/A   Clear
9:15 AM 35.6 °F 28.6 °F 23.0 °F 60% 29.82 in 10.0 mi WSW 9.2 mph - N/A   Clear
9:35 AM 39.2 °F 33.6 °F 24.8 °F 56% 29.83 in 10.0 mi WSW 8.1 mph - N/A   Clear
9:55 AM 42.8 °F 37.0 °F 26.6 °F 53% 29.85 in 10.0 mi West 10.4 mph - N/A   Clear
10:15 AM 44.6 °F 40.2 °F 26.6 °F 49% 29.87 in 10.0 mi WNW 8.1 mph - N/A   Clear
10:35 AM 44.6 °F 40.2 °F 26.6 °F 49% 29.88 in 10.0 mi North 8.1 mph - N/A   Clear
10:55 AM 44.6 °F 40.2 °F 23.0 °F 43% 29.87 in 10.0 mi North 8.1 mph - N/A   Clear
11:15 AM 46.4 °F 44.3 °F 23.0 °F 40% 29.86 in 10.0 mi NNW 4.6 mph - N/A   Clear
11:35 AM 48.2 °F - 21.2 °F 34% 29.86 in 10.0 mi Calm Calm - N/A   Clear
11:55 AM 48.2 °F - 21.2 °F 34% 29.86 in 10.0 mi NE 5.8 mph - N/A   Clear
12:15 PM 50.0 °F - 19.4 °F 30% 29.85 in 10.0 mi NE 4.6 mph - N/A   Clear
12:35 PM 50.0 °F - 21.2 °F 32% 29.84 in 10.0 mi East 4.6 mph - N/A   Clear
12:55 PM 51.8 °F - 19.4 °F 28% 29.83 in 10.0 mi Calm Calm - N/A   Clear
1:15 PM 51.8 °F - 19.4 °F 28% 29.82 in 10.0 mi East 6.9 mph - N/A   Clear
1:35 PM 51.8 °F - 21.2 °F 30% 29.80 in 10.0 mi East 6.9 mph - N/A   Clear
1:55 PM 51.8 °F - 19.4 °F 28% 29.79 in 10.0 mi East 6.9 mph - N/A   Clear
2:15 PM 51.8 °F - 21.2 °F 30% 29.79 in 10.0 mi ESE 8.1 mph - N/A   Clear
2:35 PM 51.8 °F - 19.4 °F 28% 29.78 in 10.0 mi East 8.1 mph - N/A   Clear
2:55 PM 51.8 °F - 21.2 °F 30% 29.78 in 10.0 mi ESE 9.2 mph - N/A   Clear
3:15 PM 51.8 °F - 19.4 °F 28% 29.78 in 10.0 mi ESE 8.1 mph - N/A   Clear
3:35 PM 51.8 °F - 21.2 °F 30% 29.78 in 10.0 mi SE 9.2 mph - N/A   Clear
3:55 PM 51.8 °F - 21.2 °F 30% 29.78 in 10.0 mi SE 11.5 mph - N/A   Clear
4:15 PM 51.8 °F - 19.4 °F 28% 29.77 in 10.0 mi ESE 8.1 mph - N/A   Clear
4:35 PM 50.0 °F - 21.2 °F 32% 29.76 in 10.0 mi ESE 9.2 mph - N/A   Clear
4:55 PM 48.2 °F - 21.2 °F 34% 29.76 in 10.0 mi ESE 8.1 mph - N/A   Clear
5:15 PM 46.4 °F 42.4 °F 21.2 °F 37% 29.76 in 10.0 mi ESE 8.1 mph - N/A   Clear
5:35 PM 42.8 °F 38.0 °F 21.2 °F 42% 29.75 in 10.0 mi ESE 8.1 mph - N/A   Clear
5:55 PM 42.8 °F 38.0 °F 21.2 °F 42% 29.74 in 10.0 mi ESE 8.1 mph - N/A   Clear
6:15 PM 42.8 °F 38.0 °F 21.2 °F 42% 29.75 in 10.0 mi ESE 8.1 mph - N/A   Clear
6:35 PM 41.0 °F 35.2 °F 21.2 °F 45% 29.75 in 10.0 mi SE 9.2 mph - N/A   Clear
6:55 PM 41.0 °F 34.7 °F 21.2 °F 45% 29.74 in 10.0 mi ESE 10.4 mph - N/A   Clear
7:15 PM 35.6 °F 28.6 °F 21.2 °F 56% 29.74 in 10.0 mi SE 9.2 mph - N/A   Clear
7:35 PM 37.4 °F 30.3 °F 21.2 °F 52% 29.74 in 10.0 mi SE 10.4 mph - N/A   Clear
7:55 PM 37.4 °F 30.8 °F 21.2 °F 52% 29.74 in 10.0 mi SE 9.2 mph - N/A   Clear
8:15 PM 37.4 °F 30.8 °F 21.2 °F 52% 29.74 in 10.0 mi SE 9.2 mph - N/A   Clear
8:35 PM 37.4 °F 31.4 °F 21.2 °F 52% 29.74 in 10.0 mi SE 8.1 mph - N/A   Clear
8:55 PM 35.6 °F 28.6 °F 23.0 °F 60% 29.73 in 10.0 mi SE 9.2 mph - N/A   Clear
9:15 PM 35.6 °F 28.6 °F 21.2 °F 56% 29.72 in 10.0 mi SSE 9.2 mph - N/A   Clear
9:35 PM 37.4 °F 30.8 °F 23.0 °F 56% 29.72 in 10.0 mi SSE 9.2 mph - N/A   Clear
9:55 PM 39.2 °F 32.5 °F 23.0 °F 52% 29.72 in 10.0 mi SSE 10.4 mph - N/A   Clear
10:15 PM 41.0 °F 34.7 °F 23.0 °F 49% 29.72 in 10.0 mi SSE 10.4 mph - N/A   Clear
10:35 PM 41.0 °F 35.2 °F 23.0 °F 49% 29.72 in 10.0 mi South 9.2 mph - N/A   Clear
10:55 PM 42.8 °F 37.0 °F 23.0 °F 46% 29.72 in 10.0 mi South 10.4 mph - N/A   Clear
11:15 PM 42.8 °F 37.5 °F 23.0 °F 46% 29.72 in 10.0 mi South 9.2 mph - N/A   Clear
11:35 PM 41.0 °F 35.8 °F 24.8 °F 53% 29.73 in 10.0 mi South 8.1 mph - N/A   Clear
11:55 PM 41.0 °F 36.4 °F 24.8 °F 53% 29.72 in 10.0 mi South 6.9 mph - N/A   Clear